Shaonian Xing (43199 NORAD) Tracking and Keplerian Element Data

This shows tracking and keplerian element data for the satellite.

Feedback or suggestion? Click here.




ElementValue
Catalog43199
NameShaonian Xing
Epoch Orbit2443
Epoch Day193.76275482
Epoch Year2018
RAAN321.8859
Inclination97.3373
Eccentricity0.0019185
Argument of Perigee68.0912
Mean Anonmoly292.2367
Mean Motion15.23753972
Decay Rate1.107E-05
L11 43199U 18015H 18193.76275482 .00001107 00000-0 48757-4 0 9998
L22 43199 97.3373 321.8859 0019185 68.0912 292.2367 15.23753972 24434

Live tracking and technical data element details for Shaonian Xing (NORAD 43199). Shaonian Xing can be tracked NOW for your location showing map with azimuth and elevation plus other details from your city location.

Track the satellite on the map from your city or location and see movement details for azimuth, elevation, latitude, longitude, range, height, and movement on the map or in text.







IsCatalogInMostPopularTable: catalog: 43199, numindb: 113
Update: records affected: 1



GetName: 43199 Shaonian Xing

Hit Count: updated at: Thu, 19 Jul 2018 03:41:44 GMT